{"data":{"norad_id":43911,"intl_designator":"2018-112C","name":"YUNHAI-2 01C","alt_names":[],"object_type":"PAYLOAD","status":"ACTIVE","operator":null,"country":"PRC","launch_date":"2018-12-29","launch_site_code":"JSC","launch_vehicle":null,"mission":null,"orbit_class":"UNKNOWN","rcs_meters":null,"size_class":null,"mass_kg":null,"dimensions":null,"purposes":[],"wikipedia_slug":null,"has_3d_model":false,"image_url":null,"decayed_at":null,"tle_current":{"epoch":"2026-05-25T05:07:03.967968Z","epoch_age_seconds":56628,"freshness":"FRESH","line1":"1 43911U 18112C   26145.21324037  .00000215  00000+0  14796-3 0  9998","line2":"2 43911  50.0110  84.9527 0000644  37.3128 322.7832 14.28986839388509","mean_motion":14.28986839,"eccentricity":6.44e-5,"inclination_deg":50.011,"raan_deg":84.9527,"arg_perigee_deg":37.3128,"mean_anomaly_deg":322.7832,"bstar":0.00014796,"rev_number":38850,"period_min":100.77069716105,"perigee_km":794.6574567562,"apogee_km":795.58137218238,"semimajor_km":7173.2564144693,"source":"CELESTRAK","updated_at":"2026-05-25T13:37:55.928158Z"}}}